Retour au catalogue

THOR ABLESTAR DEB

ActifLEO
NORAD 299·DEBRIS·🇺🇸 United States

Lancé Jun 29, 1961 depuis Cape Canaveral Space Force Station

Loading…

Prochains Passages (prochaines 24 heures)

TLE

FraisSource: Space-Track

Époque: Sep 9, 2026, 21:10 UTC

1 00299U 61015CQ  26252.88259828 -.00000008  00000-0  62403-4 0  9998
2 00299  67.1671 197.5766 0197679 236.0292 122.1856 13.69046296240652

Suivez THOR ABLESTAR DEB en temps réel avec AllMySat

Download on the App Store